| time (UTC) | temp C | wind direction | speed KPH | gust KPH | rain 1hr cm | rain 24hr cm | rain mn cm | humidity % | barometer mb |
| 20260504194601 | 23 | 199 | 3.2 | 22.5 | 0.00 | 0.00 | 0.00 | 32 | 1009.2 |
| 20260504193056 | 22 | 260 | 9.7 | 19.3 | 0.00 | 0.00 | 0.00 | 31 | 1009.4 |
| 20260504191612 | 22 | 0 | 6.4 | 25.7 | 0.00 | 0.00 | 0.00 | 32 | 1009.6 |
| 20260504190051 | 22 | 294 | 8.0 | 24.1 | 0.00 | 0.00 | 0.00 | 32 | 1009.8 |
| 20260504184552 | 22 | 286 | 9.7 | 24.1 | 0.00 | 0.00 | 0.00 | 31 | 1010.1 |
| 20260504183053 | 22 | 243 | 12.9 | 30.6 | 0.00 | 0.00 | 0.00 | 31 | 1010.3 |
| 20260504181600 | 22 | 185 | 4.8 | 22.5 | 0.00 | 0.00 | 0.00 | 32 | 1010.6 |
| 20260504180052 | 22 | 245 | 6.4 | 19.3 | 0.00 | 0.00 | 0.00 | 33 | 1010.8 |
| 20260504174554 | 21 | 277 | 8.0 | 22.5 | 0.00 | 0.00 | 0.00 | 34 | 1011.1 |
| 20260504173053 | 21 | 296 | 9.7 | 24.1 | 0.00 | 0.00 | 0.00 | 34 | 1011.2 |
| 20260504171555 | 21 | 300 | 6.4 | 24.1 | 0.00 | 0.00 | 0.00 | 34 | 1011.4 |
| 20260504090107 | 7 | 186 | 1.6 | 8.0 | 0.00 | 0.00 | 0.00 | 67 | 1014.0 |
| 20260504081601 | 8 | 210 | 1.6 | 8.0 | 0.00 | 0.00 | 0.00 | 65 | 1013.9 |
| 20260504044609 | 8 | 0 | 0.0 | 1.6 | 0.00 | 0.00 | 0.00 | 58 | 1013.4 |
| 20260504043056 | 8 | 0 | 0.0 | 4.8 | 0.00 | 0.00 | 0.00 | 56 | 1013.2 |
| 20260504041554 | 8 | 0 | 0.0 | 1.6 | 0.00 | 0.00 | 0.00 | 57 | 1013.0 |
| 20260504040115 | 9 | 0 | 0.0 | 4.8 | 0.00 | 0.00 | 0.00 | 56 | 1013.1 |
| 20260504034607 | 9 | 0 | 0.0 | 4.8 | 0.00 | 0.00 | 0.00 | 54 | 1012.9 |
| 20260504033056 | 10 | 236 | 0.0 | 3.2 | 0.00 | 0.00 | 0.00 | 56 | 1012.9 |
| 20260504031553 | 10 | 0 | 0.0 | 4.8 | 0.00 | 0.00 | 0.00 | 52 | 1012.8 |
| 20260504030052 | 10 | 266 | 0.0 | 4.8 | 0.00 | 0.00 | 0.00 | 52 | 1012.8 |
| 20260504024558 | 10 | 0 | 0.0 | 3.2 | 0.00 | 0.00 | 0.00 | 52 | 1012.7 |
| 20260504023055 | 10 | 257 | 0.0 | 3.2 | 0.00 | 0.00 | 0.00 | 49 | 1012.6 |
| 20260504021551 | 11 | 0 | 0.0 | 4.8 | 0.00 | 0.00 | 0.00 | 50 | 1012.5 |
| 20260504020052 | 11 | 267 | 0.0 | 6.4 | 0.00 | 0.00 | 0.00 | 48 | 1012.5 |
| 20260504014556 | 11 | 0 | 0.0 | 0.0 | 0.00 | 0.00 | 0.00 | 52 | 1012.5 |
| 20260504013108 | 11 | 0 | 0.0 | 0.0 | 0.00 | 0.00 | 0.00 | 44 | 1012.3 |
| 20260504011557 | 12 | 0 | 0.0 | 4.8 | 0.00 | 0.00 | 0.00 | 44 | 1012.2 |
| 20260504010101 | 12 | 0 | 0.0 | 4.8 | 0.00 | 0.00 | 0.00 | 42 | 1012.0 |
| 20260504004608 | 13 | 0 | 0.0 | 6.4 | 0.00 | 0.00 | 0.00 | 38 | 1011.9 |
| 20260504003054 | 13 | 279 | 1.6 | 4.8 | 0.00 | 0.00 | 0.00 | 36 | 1011.6 |
| 20260504001601 | 14 | 273 | 3.2 | 12.9 | 0.00 | 0.00 | 0.00 | 35 | 1011.6 |
| 20260504000100 | 14 | 259 | 3.2 | 11.3 | 0.00 | 0.00 | 0.00 | 34 | 1011.5 |
| 20260503234553 | 15 | 250 | 1.6 | 20.9 | 0.00 | 0.00 | 0.00 | 34 | 1011.3 |
| 20260503233056 | 15 | 331 | 4.8 | 19.3 | 0.00 | 0.00 | 0.00 | 32 | 1011.1 |
| 20260503231553 | 15 | 275 | 3.2 | 20.9 | 0.00 | 0.00 | 0.00 | 31 | 1011.0 |
| 20260503230056 | 16 | 297 | 6.4 | 22.5 | 0.00 | 0.00 | 0.00 | 30 | 1011.0 |
| 20260503224553 | 16 | 302 | 3.2 | 22.5 | 0.00 | 0.00 | 0.00 | 30 | 1010.9 |
| 20260503223054 | 16 | 340 | 9.7 | 24.1 | 0.00 | 0.00 | 0.00 | 29 | 1010.9 |
| 20260503221553 | 16 | 344 | 6.4 | 19.3 | 0.00 | 0.00 | 0.00 | 30 | 1011.0 |
| 20260503220118 | 16 | 355 | 3.2 | 24.1 | 0.00 | 0.00 | 0.00 | 31 | 1011.1 |
| 20260503214552 | 16 | 300 | 8.0 | 22.5 | 0.00 | 0.00 | 0.00 | 30 | 1011.1 |
| 20260503213057 | 15 | 292 | 6.4 | 27.4 | 0.00 | 0.00 | 0.00 | 30 | 1011.0 |
| 20260503211555 | 16 | 297 | 6.4 | 25.7 | 0.00 | 0.00 | 0.00 | 31 | 1011.1 |
| 20260503210053 | 15 | 310 | 16.1 | 32.2 | 0.00 | 0.00 | 0.00 | 30 | 1011.0 |
| 20260503204552 | 15 | 318 | 11.3 | 35.4 | 0.00 | 0.00 | 0.00 | 31 | 1011.0 |
| 20260503203058 | 15 | 10 | 11.3 | 29.0 | 0.00 | 0.00 | 0.00 | 31 | 1011.0 |
| 20260503201552 | 15 | 265 | 11.3 | 38.6 | 0.00 | 0.00 | 0.00 | 30 | 1011.1 |